Flag for Greece Weather past 2 weeks in Thessaloniki, Greece

Now
52 °F

Mostly cloudy.


Feels Like: 49 °F
Forecast: 42 / 54 °F
Wind: 9 mph from Southeast

Location: Thessaloniki Airport

Current Time: Mar 5, 2015 at 12:40:55 PM

Latest Report: Mar 5, 2015 at 11:50 AM


Visibility: N/A

Pressure: 30.09 "Hg

Humidity: 62%

Dew point: 39 °F

Location of ThessalonikiLocation

Historic Weather in Thessaloniki — Graph

°F

Thessaloniki temperature yesterday

Maximum temperature yesterday: 57 °F (at 1:50 PM)
Minimum temperature yesterday: 43 °F (at 7:50 AM)
Average temperature yesterday: 50 °F

Past Weeks' High & Low Weather Summary

 TemperatureHumidityPressure
High61 °F (Mar 3, 12:50 PM)100% (Feb 23, 2:50 AM)30.57 "Hg (Feb 23, 2:50 AM)
Low25 °F (Feb 19, 4:20 AM)23% (Feb 20, 3:20 PM)29.65 "Hg (Feb 24, 3:50 PM)
Average48 °F72%30.01 "Hg
* Reported Feb 18 11:50 AM — Mar 5 11:20 AM, Thessaloniki, Weather by CustomWeather, © 2015

Note: Actual official high and low records may vary slightly from our data, if they occured in-between our weather recording intervals... More about our weather records

Advertising

Thessaloniki weather history for previous 24 hours

 ConditionsComfort  
Time TempWeatherWind HumidityBarometerVisibility
11:20 AM
Thu, Mar 5
50 °FMostly cloudy.8 mph67%30.09 "HgN/A
10:50 AM50 °FMostly cloudy.7 mph67%30.09 "HgN/A
10:20 AM48 °FMostly cloudy.6 mph76%30.09 "HgN/A
9:50 AM46 °FMostly cloudy.3 mph82%30.12 "HgN/A
9:20 AM46 °FDrizzle. Mostly cloudy.5 mph76%30.12 "HgN/A
8:50 AM45 °FLight rain. Mostly cloudy.6 mph87%30.12 "HgN/A
8:20 AM45 °FSleet. Mostly cloudy.6 mph81%30.12 "Hg6 mi
7:50 AM46 °FRain. Mostly cloudy.6 mph71%30.12 "Hg5 mi
7:20 AM48 °FLight rain. Mostly cloudy.6 mph62%30.09 "HgN/A
6:50 AM46 °FDrizzle. Mostly cloudy.8 mph71%30.12 "HgN/A
6:20 AM46 °FPassing clouds.5 mph71%30.12 "HgN/A
5:20 AM46 °FLight rain. Mostly cloudy.8 mph71%30.12 "HgN/A
4:50 AM46 °FLight rain. Passing clouds.7 mph66%30.12 "HgN/A
3:50 AM45 °FPartly cloudy.6 mph71%30.15 "HgN/A
3:20 AM45 °FPartly cloudy.6 mph71%30.15 "HgN/A
2:50 AM45 °FPartly cloudy.6 mph71%30.18 "HgN/A
2:20 AM45 °FPassing clouds.3 mph71%30.18 "HgN/A
1:50 AM45 °FPassing clouds.5 mph71%30.21 "HgN/A
1:20 AM46 °FPassing clouds.5 mph66%30.21 "HgN/A
12:50 AM45 °FPassing clouds.7 mph71%30.21 "HgN/A
12:20 AM45 °FPassing clouds.7 mph71%30.21 "HgN/A
11:20 PM
Wed, Mar 4
43 °FClear.6 mph76%30.24 "Hg10 mi
10:50 PM43 °FClear.7 mph76%30.24 "Hg10 mi
10:20 PM43 °FClear.6 mph71%30.27 "Hg10 mi
9:50 PM45 °FClear.5 mph71%30.27 "Hg10 mi
9:20 PM45 °FClear.6 mph71%30.27 "Hg10 mi
8:50 PM46 °FClear.7 mph66%30.27 "Hg10 mi
8:20 PM46 °FClear.6 mph66%30.27 "Hg10 mi
7:50 PM48 °FClear.6 mph62%30.27 "Hg10 mi
7:20 PM48 °FClear.6 mph62%30.27 "Hg10 mi
6:50 PM50 °FPassing clouds.7 mph58%30.27 "HgN/A
6:20 PM52 °FPassing clouds.9 mph54%30.24 "HgN/A
5:50 PM54 °FPassing clouds.13 mph51%30.24 "HgN/A
5:20 PM55 °FPassing clouds.14 mph47%30.24 "HgN/A
4:50 PM55 °FPassing clouds.16 mph47%30.24 "HgN/A
4:20 PM55 °FPassing clouds.16 mph47%30.24 "HgN/A
3:50 PM55 °FPassing clouds.18 mph44%30.27 "HgN/A
3:20 PM55 °FPassing clouds.17 mph44%30.27 "HgN/A
2:50 PM57 °FPassing clouds.17 mph36%30.27 "HgN/A
2:20 PM57 °FScattered clouds.16 mph36%30.30 "HgN/A
1:50 PM57 °FPartly sunny.14 mph33%30.30 "HgN/A
1:20 PM55 °FPartly sunny.5 mph26%30.30 "HgN/A
12:50 PM55 °FScattered clouds.5 mph28%30.33 "HgN/A
12:20 PM55 °FScattered clouds.6 mph28%30.33 "HgN/A
Weather by CustomWeather, © 2015

See weather overviewHow to use our weather pages